Probability
0 0 0 0 0 0 0 0 1 1 1 0 0 0 0 0 0 0 0 0 0 0 0 0 0 0 0 0 0 0 0 0 0 0 0 0 0 0 0 0 0 0 0
0 0 0 1 1 0 0 0 0 0 0 0 0 0 0 0 0 0 0 0 0 0 0 0 0 0 0 0 0 0 0 0 0 0 0 0 0 0 0 0 0 0 0
0 0 1 2 2 1 1 0 0 0 0 0 0 0 0 0 0 0 0 0 0 0 0 0 0 0 0 0 0 0 0 0 0 0 0 0 0 0 0 0 0 0 0
1 1 3 5 5 4 3 3 2 1 0 0 0 0 0 0 0 0 0 0 0 0 0 0 0 0 0 0 0 0 0 0 0 0 0 0 0 0 0 0 0 0 0
5 5 7 11 12 10 9 7 5 2 0 0 0 0 0 0 0 0 0 0 0 0 0 0 0 0 0 0 0 0 0 0 0 0 0 0 0 0 0 0 0 0 0
9 9 15 23 22 16 14 12 8 4 1 1 1 1 1 1 0 0 0 0 0 0 0 0 0 0 0 0 0 0 0 0 0 0 0 0 0 0 0 0 0 0 0
14 15 24 37 36 25 18 16 12 7 4 3 3 2 2 1 0 0 0 0 0 0 0 0 0 0 0 0 0 0 0 0 0 0 0 0 0 0 0 0 0 0 0
18 20 29 43 46 36 25 21 19 14 10 7 4 2 1 1 0 0 0 0 0 0 0 0 0 0 0 0 0 0 0 0 0 0 0 0 0 0 0 0 0 0 0
18 23 31 38 43 40 33 29 26 21 14 9 5 2 0 0 0 0 0 0 0 0 0 0 0 0 0 0 0 0 0 0 0 0 0 0 0 0 0 0 0 0 0
18 24 33 37 38 40 39 36 30 23 15 10 6 4 2 1 1 1 0 0 0 0 0 0 0 0 0 0 0 0 0 0 0 0 0 0 0 0 0 0 0 0 0
20 26 35 41 43 46 45 38 31 23 15 11 10 7 5 5 4 3 2 1 0 0 0 0 0 0 0 1 1 1 1 1 1 1 0 0 0 0 0 0 0 0 0
18 24 34 42 48 52 49 40 34 29 22 17 15 11 9 9 9 6 5 3 2 2 1 2 3 4 4 5 6 6 5 4 4 3 1 0 0 0 0 0 0 0 0
18 24 33 43 53 56 51 42 38 36 32 25 21 18 15 14 13 10 8 8 8 6 4 5 7 9 11 11 12 11 8 8 9 7 3 0 0 0 1 2 2 1 1
24 28 36 47 56 58 52 43 39 38 36 30 26 25 22 18 15 12 12 13 12 9 7 8 9 10 13 16 15 11 9 8 9 8 4 1 1 1 2 3 4 3 2
33 34 39 48 53 51 47 42 39 39 39 33 29 28 26 22 17 14 13 13 11 8 7 7 8 8 12 15 13 9 6 5 4 4 3 1 2 3 4 5 5 4 3
43 41 42 45 43 39 38 38 39 41 41 36 30 28 29 26 21 16 13 10 7 7 7 7 7 7 8 10 9 6 3 1 0 1 1 1 1 3 6 9 9 8 7
50 47 46 45 40 34 32 34 35 37 38 35 29 26 28 26 22 18 12 7 4 5 7 8 8 6 5 4 3 2 1 0 0 0 0 0 0 2 5 10 13 14 14
47 47 49 48 42 35 33 33 33 34 34 31 27 24 21 19 18 15 10 5 3 4 6 8 8 5 2 1 0 0 0 0 0 0 0 0 0 0 2 6 10 14 16
37 40 45 46 42 38 36 34 34 33 31 29 27 22 14 10 10 8 6 4 3 3 3 4 4 3 1 0 0 0 0 0 0 0 0 0 0 0 0 1 5 8 9
29 31 35 37 37 37 34 32 30 29 28 27 24 18 10 6 4 3 2 2 2 1 1 1 1 1 0 0 0 0 0 0 0 0 0 0 0 0 0 0 2 4 4
25 25 25 26 28 28 26 24 23 21 20 19 16 12 8 4 3 2 1 1 1 0 0 0 0 0 0 0 0 0 0 0 0 0 0 0 0 0 0 0 0 2 3
21 18 15 15 16 17 16 15 14 12 10 10 8 6 5 4 4 3 1 0 0 0 0 0 0 0 0 0 0 0 0 0 0 0 0 0 0 0 0 0 0 0 1
13 10 8 8 7 7 6 6 6 4 4 4 3 2 2 3 4 3 2 0 0 0 0 0 0 0 0 0 0 0 0 0 0 0 0 0 0 0 0 0 0 0 0
7 6 4 3 2 2 1 2 2 1 1 1 1 1 1 2 3 3 2 1 0 0 0 0 0 0 0 0 0 0 0 0 0 0 0 0 0 0 0 0 0 0 0
3 3 2 1 1 1 1 1 2 1 0 0 0 0 1 1 2 2 2 1 0 0 0 0 0 0 0 0 0 0 0 0 0 0 0 0 0 0 0 0 0 0 0
1 1 1 0 1 2 2 2 3 2 1 0 0 0 0 0 1 1 1 0 0 0 0 0 0 0 0 0 0 0 0 0 0 0 0 0 0 0 0 0 0 0 0
Wind_Speed
9 11 19 19 19 18 17 17 17 17 17 17 17 17 17 16 16 15 13 12 11 10 9 8 8 8 8 8 9 10 10 11 11 11 12 12 12 12 12 13 12 10 13
14 14 20 20 19 18 17 17 16 16 16 16 16 16 16 16 15 14 13 12 11 10 10 9 8 8 8 8 8 9 9 10 10 11 11 10 10 11 12 12 12 8 13
15 14 17 20 19 18 18 17 16 16 16 16 16 15 15 15 14 14 13 12 11 10 10 9 9 8 8 8 8 8 8 9 9 9 9 5 6 10 11 12 12 12 12
15 12 14 20 20 19 18 17 16 16 15 15 15 15 14 14 14 13 13 12 11 10 10 9 9 8 8 8 8 8 8 8 8 8 4 4 4 8 10 11 12 12 12
12 10 14 22 20 19 18 17 16 15 15 15 14 14 14 13 13 13 12 12 11 11 10 9 9 8 8 8 8 7 7 7 7 6 3 2 1 6 10 11 12 12 12
11 9 13 22 20 19 18 17 16 15 15 14 14 14 13 13 13 12 12 11 11 10 10 10 9 9 8 8 8 8 7 7 6 3 3 2 2 6 9 11 12 13 12
12 9 11 20 20 19 18 17 16 16 15 14 14 14 13 13 12 12 12 11 11 11 10 10 10 9 9 9 9 8 8 8 4 3 3 3 4 7 9 11 12 13 13
13 10 10 20 20 19 18 18 17 16 15 15 14 14 13 13 13 12 12 12 11 11 11 11 10 10 10 10 9 9 9 9 6 5 5 5 7 9 11 12 13 13 14
12 10 8 11 14 18 18 18 17 16 15 15 14 14 13 13 13 13 12 12 12 12 12 11 11 11 11 11 11 10 10 11 6 4 5 4 8 11 12 13 14 14 15
10 9 8 8 8 9 11 16 17 16 16 15 15 15 14 14 13 14 12 12 13 13 13 13 13 13 12 12 12 12 12 10 7 6 5 5 9 11 13 14 15 15 16
10 9 8 7 7 7 7 12 14 15 15 15 13 16 14 7 7 8 11 13 14 14 14 15 15 14 14 13 14 13 11 5 6 6 5 9 11 12 13 14 15 16 16
13 12 9 9 7 6 7 6 5 6 7 7 5 6 5 4 5 8 9 15 15 16 16 16 16 15 12 6 9 12 6 8 7 6 6 12 13 14 14 14 15 17 17
11 11 10 10 8 7 5 4 3 3 3 4 5 6 4 4 4 6 4 7 8 11 8 10 10 7 6 6 6 6 7 7 5 6 7 13 14 14 14 15 15 16 17
9 10 9 9 9 8 6 4 4 3 3 4 5 6 5 4 4 4 4 5 4 4 5 5 4 6 7 8 8 8 8 6 5 5 7 13 13 14 15 16 15 16 17
7 7 7 7 8 7 6 4 5 5 5 5 4 5 6 5 5 5 4 4 5 4 4 4 5 5 5 6 6 7 7 8 7 7 5 12 13 13 15 15 15 15 16
5 6 6 7 6 5 5 4 3 3 3 4 4 6 7 6 6 5 5 4 4 4 4 4 4 4 3 3 4 5 6 6 7 7 6 8 12 13 13 13 14 14 15
6 5 6 6 5 5 5 5 3 2 3 4 5 6 7 6 5 5 4 4 4 3 3 3 3 2 2 3 4 5 5 6 6 7 7 6 6 10 13 13 12 12 14
5 5 5 5 5 5 5 4 3 2 4 4 4 4 6 6 7 5 4 4 3 2 2 2 2 1 2 2 2 3 3 4 6 7 6 6 5 6 9 13 12 11 12
3 4 3 3 4 4 4 4 4 3 4 3 3 4 5 7 7 5 4 4 3 2 2 2 2 2 2 2 3 3 3 4 5 5 6 7 7 6 6 8 12 11 12
3 3 2 1 1 2 1 1 1 2 3 2 3 4 5 5 6 5 4 3 3 2 2 2 2 2 2 2 2 2 3 3 3 4 6 5 5 6 6 7 5 7 12
6 5 4 3 1 2 1 0 1 1 2 2 3 5 5 5 5 5 4 3 3 3 3 3 2 2 1 1 0 2 2 2 3 3 3 3 4 4 5 6 5 4 5
6 5 6 5 4 3 2 1 0 1 0 0 1 2 2 3 4 4 4 3 3 3 3 3 3 2 1 1 2 0 2 3 2 1 1 2 2 2 3 4 4 5 5
7 6 6 6 5 5 3 1 1 2 2 1 1 1 1 1 2 2 3 3 3 3 3 4 4 4 3 2 2 2 2 2 2 2 2 1 1 1 1 2 3 4 5
5 5 5 5 4 4 4 3 2 1 1 1 1 1 2 2 1 0 1 2 3 3 4 4 4 3 4 3 2 2 2 2 2 2 2 2 2 1 2 2 3 3 4
4 4 3 3 4 3 3 4 4 1 0 1 1 2 2 2 2 2 1 1 2 3 3 4 4 5 4 4 3 2 2 1 2 2 3 3 2 2 2 3 3 3 3
3 2 2 2 2 1 2 2 3 3 2 1 0 1 1 1 1 2 1 1 2 2 3 4 4 5 5 5 4 3 4 3 4 4 4 3 3 3 3 3 2 2 2
Wind_Direction
166 164 171 163 156 151 148 144 141 138 137 136 137 140 143 146 149 151 153 154 153 152 148 142 137 131 128 126 125 124 125 126 127 129 130 130 131 130 128 124 122 122 123
154 161 169 164 158 153 151 148 145 143 142 142 142 144 147 150 153 155 156 157 158 157 153 148 146 142 138 135 132 130 130 132 134 136 135 135 137 136 134 131 130 133 132
149 158 165 163 159 155 153 151 149 149 148 148 149 150 152 154 156 158 160 162 163 161 158 156 154 151 147 143 140 139 139 141 142 143 137 131 143 148 145 141 141 139 138
148 155 161 164 161 158 156 155 155 155 155 154 156 157 158 160 162 165 167 169 169 168 165 164 163 160 157 153 151 150 150 151 153 148 129 141 153 157 156 152 150 148 145
147 154 165 165 163 161 159 159 160 161 162 162 163 164 166 168 170 171 173 176 177 176 175 175 174 172 169 167 166 165 165 165 166 150 137 150 162 172 167 163 161 159 155
149 154 169 166 165 164 163 164 166 168 169 171 172 173 175 177 179 181 182 184 186 187 187 187 187 186 184 182 182 182 182 185 179 150 163 177 192 193 182 176 173 169 166
153 158 171 167 168 168 168 170 173 175 177 179 181 182 184 187 189 191 192 193 196 198 200 200 200 199 198 198 197 198 200 204 184 178 190 202 211 212 200 192 186 180 176
158 160 169 171 171 172 173 176 179 181 184 187 189 191 193 196 199 201 203 204 206 209 212 214 214 212 211 210 210 211 212 216 213 210 211 215 219 220 213 204 197 191 187
159 161 169 172 175 177 179 182 185 188 190 194 197 200 202 205 208 211 213 216 218 220 223 225 226 225 223 221 220 222 222 224 217 208 221 219 224 223 220 214 207 199 195
162 168 169 168 170 174 180 188 191 194 197 201 204 207 210 213 215 219 220 225 229 230 232 233 234 234 233 230 229 230 231 233 227 219 226 228 228 227 226 221 214 208 202
172 177 174 171 168 168 175 192 195 200 204 206 209 214 215 217 220 226 230 231 236 239 240 240 240 239 238 237 237 236 236 227 223 224 224 234 234 233 232 229 220 214 210
183 185 185 181 174 169 185 191 193 201 204 204 203 214 212 205 216 227 236 239 242 245 247 247 245 243 241 234 238 240 232 225 224 229 230 234 236 238 236 233 226 219 215
182 184 189 189 183 180 188 186 193 201 199 204 204 213 215 210 216 229 230 246 250 252 250 251 249 239 228 223 226 228 230 230 226 229 233 235 234 236 239 236 228 223 219
175 186 185 184 185 187 190 197 198 202 204 212 212 211 211 218 222 227 232 233 236 243 250 250 244 235 229 227 227 231 232 231 228 227 234 239 235 235 238 238 230 226 223
171 181 181 183 184 187 191 204 203 210 213 217 217 213 210 217 225 228 237 235 236 234 239 245 241 235 230 229 228 231 236 237 234 230 233 241 237 237 241 241 233 230 229
171 174 167 175 185 183 191 211 215 210 215 217 220 221 215 217 221 222 234 236 236 232 233 233 232 226 227 224 231 233 233 232 233 234 234 244 247 243 245 246 240 233 233
167 164 165 173 179 187 193 207 213 218 219 222 223 222 223 223 227 222 223 232 232 225 222 221 227 215 223 226 230 236 236 232 231 233 236 234 239 247 251 250 243 232 230
151 153 168 177 175 185 185 186 189 209 228 227 223 221 217 220 216 215 212 220 214 204 205 203 198 208 226 231 236 241 238 237 238 238 237 235 230 235 245 248 244 237 230
131 141 152 173 188 191 192 188 187 188 224 227 219 216 215 210 211 207 205 206 192 186 199 209 178 189 216 234 244 244 243 242 244 246 242 238 234 232 234 245 246 242 235
38 74 101 118 173 179 181 192 230 196 214 206 216 214 212 207 201 195 198 196 184 178 192 195 183 191 213 231 257 260 257 255 251 248 248 244 238 237 238 243 243 241 238
31 34 44 58 53 111 109 85 312 223 200 209 220 216 211 211 199 186 191 187 183 186 200 194 175 189 211 177 100 320 312 283 263 255 250 244 246 246 245 243 240 237 240
39 39 46 48 37 48 74 42 303 299 340 290 276 254 234 218 203 194 190 191 189 188 199 200 183 173 194 165 154 113 338 339 331 330 293 238 247 250 250 251 243 240 242
38 34 50 56 52 46 57 55 23 19 357 359 309 296 297 252 207 196 194 188 188 192 205 207 191 182 193 197 183 163 166 238 303 324 334 325 306 253 260 268 255 249 242
33 34 44 58 59 54 73 80 73 82 270 298 300 322 342 358 355 76 201 197 200 200 208 213 200 192 180 194 199 204 195 178 189 304 314 315 313 289 284 279 278 270 258
17 17 26 37 44 41 68 93 101 101 174 279 328 357 3 0 6 6 339 229 219 214 215 214 200 197 194 192 189 181 185 206 201 209 271 301 314 293 281 278 276 275 268
334 341 356 10 12 4 65 95 124 140 155 150 355 355 358 345 351 349 333 295 254 238 230 224 213 209 207 205 203 192 182 185 195 197 228 256 282 285 284 280 269 267 271